Time,TemperatureF,DewpointF,PressureIn,WindDirection,WindDirectionDegrees,WindSpeedMPH,WindSpeedGustMPH,Humidity,HourlyPrecipIn,Conditions,Clouds,dailyrainin,SoftwareType,DateUTC
2013-01-25 00:00:00,18.7,8.1,30.43,ESE,112,2.7,2.7,63,0.00,,,0.00,WUHU21623XXSP,2013-01-25 05:00:00,
2013-01-25 00:01:00,18.7,8.1,30.43,ESE,112,2.7,2.7,63,0.00,,,0.00,WUHU21623XXSP,2013-01-25 05:01:00,
2013-01-25 00:02:00,18.7,8.1,30.43,ESE,112,2.7,2.7,63,0.00,,,0.00,WUHU21623XXSP,2013-01-25 05:02:00,
2013-01-25 00:07:00,18.7,8.1,30.42,ENE,67,3.1,3.1,63,0.00,,,0.00,WUHU21623XXSP,2013-01-25 05:07:00,
2013-01-25 00:12:00,18.7,8.4,30.41,ENE,67,1.6,3.1,64,0.00,,,0.00,WUHU21623XXSP,2013-01-25 05:12:00,
2013-01-25 00:17:00,18.7,8.4,30.41,ESE,112,0.0,1.6,64,0.00,,,0.00,WUHU21623XXSP,2013-01-25 05:17:00,
2013-01-25 00:22:00,18.7,8.4,30.41,ESE,112,1.8,1.8,64,0.00,,,0.00,WUHU21623XXSP,2013-01-25 05:22:00,
2013-01-25 00:27:00,18.7,8.4,30.40,ESE,112,1.8,1.8,64,0.00,,,0.00,WUHU21623XXSP,2013-01-25 05:27:00,
2013-01-25 00:32:00,18.5,8.3,30.40,SE,135,1.3,1.8,64,0.00,,,0.00,WUHU21623XXSP,2013-01-25 05:32:00,
2013-01-25 00:37:00,18.7,8.4,30.39,ESE,112,1.3,2.9,64,0.00,,,0.00,WUHU21623XXSP,2013-01-25 05:37:00,
2013-01-25 00:42:00,18.5,8.3,30.39,ESE,112,1.1,2.9,64,0.00,,,0.00,WUHU21623XXSP,2013-01-25 05:42:00,
2013-01-25 00:47:00,18.5,8.3,30.38,ESE,112,0.0,1.1,64,0.00,,,0.00,WUHU21623XXSP,2013-01-25 05:47:00,
2013-01-25 00:52:00,18.5,8.3,30.38,SE,135,0.9,0.9,64,0.00,,,0.00,WUHU21623XXSP,2013-01-25 05:52:00,
2013-01-25 00:57:00,18.5,8.3,30.39,East,90,2.9,2.9,64,0.00,,,0.00,WUHU21623XXSP,2013-01-25 05:57:00,
2013-01-25 01:02:00,18.5,8.3,30.38,East,90,2.9,2.9,64,0.00,,,0.00,WUHU21623XXSP,2013-01-25 06:02:00,
2013-01-25 01:10:00,18.5,8.3,30.38,East,90,2.9,2.9,64,0.00,,,0.00,WUHU21623XXSP,2013-01-25 06:10:00,
2013-01-25 01:15:00,18.3,8.1,30.38,ENE,67,0.0,2.9,64,0.00,,,0.00,WUHU21623XXSP,2013-01-25 06:15:00,
2013-01-25 01:20:00,18.3,8.1,30.38,NE,45,1.3,2.9,64,0.00,,,0.00,WUHU21623XXSP,2013-01-25 06:20:00,
2013-01-25 01:25:00,18.5,8.3,30.38,East,90,0.0,1.3,64,0.00,,,0.00,WUHU21623XXSP,2013-01-25 06:25:00,
2013-01-25 01:30:00,18.3,8.1,30.38,ESE,112,0.0,2.5,64,0.00,,,0.00,WUHU21623XXSP,2013-01-25 06:30:00,
2013-01-25 01:35:00,18.5,8.3,30.38,SE,135,4.0,4.0,64,0.00,,,0.00,WUHU21623XXSP,2013-01-25 06:35:00,
2013-01-25 01:40:00,18.5,8.3,30.39,SE,135,0.0,4.0,64,0.00,,,0.00,WUHU21623XXSP,2013-01-25 06:40:00,
2013-01-25 01:45:00,18.5,8.3,30.39,ESE,112,0.0,4.0,64,0.00,,,0.00,WUHU21623XXSP,2013-01-25 06:45:00,
2013-01-25 01:50:00,18.5,8.3,30.39,ESE,112,0.0,0.0,64,0.00,,,0.00,WUHU21623XXSP,2013-01-25 06:50:00,
2013-01-25 01:55:00,18.5,8.3,30.38,ESE,114,1.9,2.7,64,0.00,,,0.00,WUHU21623XXSP,2013-01-25 06:55:00,
2013-01-25 02:00:00,18.5,8.3,30.37,East,90,0.0,3.6,64,0.00,,,0.00,WUHU21623XXSP,2013-01-25 07:00:00,
2013-01-25 02:05:00,18.5,8.3,30.37,East,90,0.0,3.6,64,0.00,,,0.00,WUHU21623XXSP,2013-01-25 07:05:00,
2013-01-25 02:10:00,18.5,8.3,30.37,East,90,0.0,0.0,64,0.00,,,0.00,WUHU21623XXSP,2013-01-25 07:10:00,
2013-01-25 02:15:00,18.5,8.3,30.38,ESE,112,1.6,1.8,64,0.00,,,0.00,WUHU21623XXSP,2013-01-25 07:15:00,
2013-01-25 02:20:00,18.3,8.1,30.38,ENE,67,0.0,1.8,64,0.00,,,0.00,WUHU21623XXSP,2013-01-25 07:20:00,
2013-01-25 02:25:00,18.3,8.1,30.38,ENE,67,0.0,0.0,64,0.00,,,0.00,WUHU21623XXSP,2013-01-25 07:25:00,
2013-01-25 02:30:00,18.3,8.1,30.38,ESE,112,0.0,0.0,64,0.00,,,0.00,WUHU21623XXSP,2013-01-25 07:30:00,
2013-01-25 02:35:00,18.3,8.1,30.38,East,90,0.0,0.0,64,0.00,,,0.00,WUHU21623XXSP,2013-01-25 07:35:00,
2013-01-25 02:40:00,18.5,8.3,30.37,East,90,0.7,0.7,64,0.00,,,0.00,WUHU21623XXSP,2013-01-25 07:40:00,
2013-01-25 02:45:00,18.3,8.1,30.38,SE,135,0.0,0.7,64,0.00,,,0.00,WUHU21623XXSP,2013-01-25 07:45:00,
2013-01-25 02:50:00,18.5,8.3,30.37,ESE,112,0.0,0.0,64,0.00,,,0.00,WUHU21623XXSP,2013-01-25 07:50:00,
2013-01-25 02:55:00,18.5,8.3,30.36,ESE,112,0.0,0.0,64,0.00,,,0.00,WUHU21623XXSP,2013-01-25 07:55:00,
2013-01-25 03:00:00,18.5,8.3,30.36,SE,135,0.0,0.0,64,0.00,,,0.00,WUHU21623XXSP,2013-01-25 08:00:00,
2013-01-25 03:05:00,18.5,8.3,30.36,ESE,112,1.8,1.8,64,0.00,,,0.00,WUHU21623XXSP,2013-01-25 08:05:00,
2013-01-25 03:10:00,18.5,8.3,30.34,ENE,67,0.0,1.8,64,0.00,,,0.00,WUHU21623XXSP,2013-01-25 08:10:00,
2013-01-25 03:15:00,18.5,8.3,30.34,ESE,112,0.0,1.8,64,0.00,,,0.00,WUHU21623XXSP,2013-01-25 08:15:00,
2013-01-25 03:20:00,18.5,8.3,30.34,SE,135,0.0,0.0,64,0.00,,,0.00,WUHU21623XXSP,2013-01-25 08:20:00,
2013-01-25 03:25:00,18.5,8.3,30.33,SE,135,0.0,0.0,64,0.00,,,0.00,WUHU21623XXSP,2013-01-25 08:25:00,
2013-01-25 03:30:00,18.7,8.4,30.32,SSE,157,4.0,4.0,64,0.00,,,0.00,WUHU21623XXSP,2013-01-25 08:30:00,
2013-01-25 03:35:00,18.7,8.4,30.32,ESE,112,3.8,4.0,64,0.00,,,0.00,WUHU21623XXSP,2013-01-25 08:35:00,
2013-01-25 03:40:00,18.5,8.3,30.31,ESE,112,0.0,4.0,64,0.00,,,0.00,WUHU21623XXSP,2013-01-25 08:40:00,
2013-01-25 03:45:00,18.7,8.4,30.32,ESE,112,0.9,3.8,64,0.00,,,0.00,WUHU21623XXSP,2013-01-25 08:45:00,
2013-01-25 03:50:00,18.7,8.4,30.32,SSW,202,0.0,0.9,64,0.00,,,0.00,WUHU21623XXSP,2013-01-25 08:50:00,
2013-01-25 03:55:00,18.5,8.3,30.32,ESE,112,0.0,0.0,64,0.00,,,0.00,WUHU21623XXSP,2013-01-25 08:55:00,
2013-01-25 04:01:00,18.5,8.3,30.31,ENE,67,0.0,2.9,64,0.00,,,0.00,WUHU21623XXSP,2013-01-25 09:01:00,
2013-01-25 04:06:00,18.5,8.3,30.31,East,90,1.6,2.9,64,0.00,,,0.00,WUHU21623XXSP,2013-01-25 09:06:00,
2013-01-25 04:11:00,18.7,8.4,30.31,SE,135,0.0,1.6,64,0.00,,,0.00,WUHU21623XXSP,2013-01-25 09:11:00,
2013-01-25 04:16:00,18.7,8.4,30.31,SE,135,0.0,1.6,64,0.00,,,0.00,WUHU21623XXSP,2013-01-25 09:16:00,
2013-01-25 04:21:00,18.7,8.4,30.30,SE,135,0.0,0.0,64,0.00,,,0.00,WUHU21623XXSP,2013-01-25 09:21:00,
2013-01-25 04:26:00,18.7,8.4,30.29,SSE,157,0.0,0.0,64,0.00,,,0.00,WUHU21623XXSP,2013-01-25 09:26:00,
2013-01-25 04:31:00,18.7,8.4,30.29,East,90,0.0,0.0,64,0.00,,,0.00,WUHU21623XXSP,2013-01-25 09:31:00,
2013-01-25 04:36:00,18.7,8.4,30.28,ENE,67,2.9,2.9,64,0.00,,,0.00,WUHU21623XXSP,2013-01-25 09:36:00,
2013-01-25 04:41:00,18.7,8.4,30.27,ESE,112,2.7,2.9,64,0.00,,,0.00,WUHU21623XXSP,2013-01-25 09:41:00,
2013-01-25 04:46:00,18.7,8.4,30.26,ESE,112,0.0,2.9,64,0.00,,,0.00,WUHU21623XXSP,2013-01-25 09:46:00,
2013-01-25 04:51:00,18.7,8.4,30.26,ESE,112,0.0,0.0,64,0.00,,,0.00,WUHU21623XXSP,2013-01-25 09:51:00,
2013-01-25 04:56:00,18.7,8.4,30.26,SE,135,0.0,0.0,64,0.00,,,0.00,WUHU21623XXSP,2013-01-25 09:56:00,
2013-01-25 05:01:00,18.7,8.4,30.26,SE,135,0.0,0.0,64,0.00,,,0.00,WUHU21623XXSP,2013-01-25 10:01:00,
2013-01-25 05:06:00,18.7,8.4,30.25,ESE,112,0.0,0.0,64,0.00,,,0.00,WUHU21623XXSP,2013-01-25 10:06:00,
2013-01-25 05:11:00,18.7,8.4,30.24,East,90,3.9,4.0,64,0.00,,,0.00,WUHU21623XXSP,2013-01-25 10:11:00,
2013-01-25 05:16:00,18.7,8.4,30.24,ESE,112,0.0,4.0,64,0.00,,,0.00,WUHU21623XXSP,2013-01-25 10:16:00,
2013-01-25 05:21:00,18.7,8.4,30.24,East,90,1.1,2.7,64,0.00,,,0.00,WUHU21623XXSP,2013-01-25 10:21:00,
2013-01-25 05:26:00,18.7,8.4,30.24,SSE,157,2.0,2.0,64,0.00,,,0.00,WUHU21623XXSP,2013-01-25 10:26:00,
2013-01-25 05:31:00,18.7,8.4,30.23,SSE,157,2.0,2.0,64,0.00,,,0.00,WUHU21623XXSP,2013-01-25 10:31:00,
2013-01-25 05:36:00,18.7,8.4,30.23,ESE,112,0.0,2.0,64,0.00,,,0.00,WUHU21623XXSP,2013-01-25 10:36:00,
2013-01-25 05:41:00,18.9,8.6,30.23,ESE,112,0.0,0.0,64,0.00,,,0.00,WUHU21623XXSP,2013-01-25 10:41:00,
2013-01-25 05:46:00,18.9,8.6,30.23,ENE,67,0.0,0.0,64,0.00,,,0.00,WUHU21623XXSP,2013-01-25 10:46:00,
2013-01-25 05:51:00,18.9,8.6,30.22,SE,135,1.6,1.6,64,0.00,,,0.00,WUHU21623XXSP,2013-01-25 10:51:00,
2013-01-25 05:56:00,18.9,8.6,30.22,SE,135,2.5,2.5,64,0.00,,,0.00,WUHU21623XXSP,2013-01-25 10:56:00,
2013-01-25 06:01:00,18.9,8.6,30.21,ESE,112,0.0,2.5,64,0.00,,,0.00,WUHU21623XXSP,2013-01-25 11:01:00,
2013-01-25 06:06:00,19.0,8.7,30.21,ESE,112,1.8,1.8,64,0.00,,,0.00,WUHU21623XXSP,2013-01-25 11:06:00,
2013-01-25 06:11:00,19.0,8.7,30.21,South,180,2.7,2.7,64,0.00,,,0.00,WUHU21623XXSP,2013-01-25 11:11:00,
2013-01-25 06:16:00,19.0,8.7,30.20,ENE,67,5.4,5.4,64,0.00,,,0.00,WUHU21623XXSP,2013-01-25 11:16:00,
2013-01-25 06:21:00,19.0,8.7,30.20,SE,135,0.0,5.4,64,0.00,,,0.00,WUHU21623XXSP,2013-01-25 11:21:00,
2013-01-25 06:26:00,19.0,8.7,30.20,ESE,112,0.4,0.4,64,0.00,,,0.00,WUHU21623XXSP,2013-01-25 11:26:00,
2013-01-25 06:31:00,19.2,8.9,30.20,SSE,157,0.0,0.4,64,0.00,,,0.00,WUHU21623XXSP,2013-01-25 11:31:00,
2013-01-25 06:36:00,19.0,8.7,30.19,SSE,157,0.9,0.9,64,0.00,,,0.00,WUHU21623XXSP,2013-01-25 11:36:00,
2013-01-25 06:41:00,19.2,8.9,30.19,SSE,157,0.0,0.9,64,0.00,,,0.00,WUHU21623XXSP,2013-01-25 11:41:00,
2013-01-25 06:46:00,19.2,8.9,30.19,SSE,157,2.5,2.5,64,0.00,,,0.00,WUHU21623XXSP,2013-01-25 11:46:00,
2013-01-25 06:51:00,19.2,9.2,30.19,SSE,157,2.5,2.5,65,0.00,,,0.00,WUHU21623XXSP,2013-01-25 11:51:00,
2013-01-25 06:56:00,19.2,9.2,30.19,SSE,157,0.0,2.5,65,0.00,,,0.00,WUHU21623XXSP,2013-01-25 11:56:00,
2013-01-25 07:01:00,19.4,9.4,30.19,SE,135,0.0,2.5,65,0.00,,,0.00,WUHU21623XXSP,2013-01-25 12:01:00,
2013-01-25 07:06:00,19.4,9.4,30.19,SE,135,0.0,0.0,65,0.00,,,0.00,WUHU21623XXSP,2013-01-25 12:06:00,
2013-01-25 07:11:00,19.4,9.8,30.19,South,180,0.0,0.0,66,0.00,,,0.00,WUHU21623XXSP,2013-01-25 12:11:00,
2013-01-25 07:16:00,19.2,9.9,30.20,SE,135,0.0,0.0,67,0.00,,,0.00,WUHU21623XXSP,2013-01-25 12:16:00,
2013-01-25 07:21:00,19.2,10.3,30.20,SSE,157,0.0,0.0,68,0.00,,,0.00,WUHU21623XXSP,2013-01-25 12:21:00,
2013-01-25 07:26:00,19.0,10.5,30.20,SSE,157,0.0,0.0,69,0.00,,,0.00,WUHU21623XXSP,2013-01-25 12:26:00,
2013-01-25 07:31:00,18.7,10.5,30.19,SSE,157,1.8,1.8,70,0.00,,,0.00,WUHU21623XXSP,2013-01-25 12:31:00,
2013-01-25 07:36:00,18.7,10.8,30.19,SSE,157,0.0,1.8,71,0.00,,,0.00,WUHU21623XXSP,2013-01-25 12:36:00,
2013-01-25 07:41:00,18.5,10.9,30.18,SSE,157,0.0,1.8,72,0.00,,,0.00,WUHU21623XXSP,2013-01-25 12:41:00,
2013-01-25 07:46:00,18.3,10.7,30.18,SSE,157,0.0,0.0,72,0.00,,,0.00,WUHU21623XXSP,2013-01-25 12:46:00,
2013-01-25 07:51:00,18.3,10.7,30.18,SSE,157,0.0,0.0,72,0.00,,,0.00,WUHU21623XXSP,2013-01-25 12:51:00,
2013-01-25 07:56:00,18.3,11.0,30.18,SSE,157,0.0,0.0,73,0.00,,,0.00,WUHU21623XXSP,2013-01-25 12:56:00,
2013-01-25 08:01:00,18.3,11.0,30.18,SSE,157,0.0,0.0,73,0.00,,,0.00,WUHU21623XXSP,2013-01-25 13:01:00,
2013-01-25 08:07:00,18.1,11.2,30.17,SSE,157,0.0,0.0,74,0.00,,,0.00,WUHU21623XXSP,2013-01-25 13:07:00,
2013-01-25 08:12:00,18.1,11.2,30.18,SSE,157,0.0,0.0,74,0.00,,,0.00,WUHU21623XXSP,2013-01-25 13:12:00,
2013-01-25 08:17:00,18.0,11.0,30.18,SSE,157,0.0,0.0,74,0.00,,,0.00,WUHU21623XXSP,2013-01-25 13:17:00,
2013-01-25 08:22:00,18.0,11.0,30.17,SSE,157,0.0,0.0,74,0.00,,,0.00,WUHU21623XXSP,2013-01-25 13:22:00,
2013-01-25 08:27:00,18.0,11.3,30.16,SSE,157,0.0,0.0,75,0.00,,,0.00,WUHU21623XXSP,2013-01-25 13:27:00,
2013-01-25 08:32:00,18.0,11.3,30.16,SSE,157,0.0,0.0,75,0.00,,,0.00,WUHU21623XXSP,2013-01-25 13:32:00,
2013-01-25 08:37:00,18.0,11.3,30.16,SSE,157,0.0,0.0,75,0.00,,,0.00,WUHU21623XXSP,2013-01-25 13:37:00,
2013-01-25 08:42:00,18.1,11.4,30.16,SSE,157,0.0,0.0,75,0.00,,,0.00,WUHU21623XXSP,2013-01-25 13:42:00,
2013-01-25 08:48:00,18.1,11.4,30.16,SSE,157,0.0,0.0,75,0.00,,,0.00,WUHU21623XXSP,2013-01-25 13:48:00,
2013-01-25 08:53:00,18.1,11.4,30.16,SSE,157,0.0,0.0,75,0.00,,,0.00,WUHU21623XXSP,2013-01-25 13:53:00,
2013-01-25 08:58:00,18.1,11.4,30.16,SSE,157,0.0,0.0,75,0.00,,,0.00,WUHU21623XXSP,2013-01-25 13:58:00,
2013-01-25 09:03:00,18.1,11.4,30.16,SSE,157,0.0,0.0,75,0.00,,,0.00,WUHU21623XXSP,2013-01-25 14:03:00,
2013-01-25 09:08:00,18.1,11.4,30.16,SSE,157,0.0,0.0,75,0.00,,,0.00,WUHU21623XXSP,2013-01-25 14:08:00,
2013-01-25 09:13:00,18.1,11.7,30.16,SSE,157,0.0,0.0,76,0.00,,,0.00,WUHU21623XXSP,2013-01-25 14:13:00,
2013-01-25 09:18:00,18.1,11.7,30.17,SSE,157,0.0,0.0,76,0.00,,,0.00,WUHU21623XXSP,2013-01-25 14:18:00,
2013-01-25 09:23:00,18.1,11.7,30.16,SSE,157,0.0,0.0,76,0.00,,,0.00,WUHU21623XXSP,2013-01-25 14:23:00,
2013-01-25 09:28:00,18.3,11.9,30.16,SSE,157,0.0,0.0,76,0.00,,,0.00,WUHU21623XXSP,2013-01-25 14:28:00,
2013-01-25 09:33:00,18.3,11.9,30.16,SSE,157,0.0,0.0,76,0.00,,,0.00,WUHU21623XXSP,2013-01-25 14:33:00,
2013-01-25 09:38:00,18.3,11.9,30.16,SSE,157,0.0,0.0,76,0.00,,,0.00,WUHU21623XXSP,2013-01-25 14:38:00,
2013-01-25 09:43:00,18.3,11.9,30.16,SSE,157,0.0,0.0,76,0.00,,,0.00,WUHU21623XXSP,2013-01-25 14:43:00,
2013-01-25 09:48:00,18.5,12.4,30.16,SSE,157,0.0,0.0,77,0.00,,,0.00,WUHU21623XXSP,2013-01-25 14:48:00,
2013-01-25 09:53:00,18.5,12.4,30.16,SSE,157,0.0,0.0,77,0.00,,,0.00,WUHU21623XXSP,2013-01-25 14:53:00,
2013-01-25 09:58:00,18.5,12.4,30.15,SE,135,0.0,0.0,77,0.00,,,0.00,WUHU21623XXSP,2013-01-25 14:58:00,
2013-01-25 10:03:00,18.5,12.4,30.15,SE,135,0.0,0.0,77,0.00,,,0.00,WUHU21623XXSP,2013-01-25 15:03:00,
2013-01-25 10:08:00,18.5,12.4,30.15,SE,135,0.0,0.0,77,0.00,,,0.00,WUHU21623XXSP,2013-01-25 15:08:00,
2013-01-25 10:13:00,18.5,12.4,30.15,SSE,157,0.0,0.0,77,0.00,,,0.00,WUHU21623XXSP,2013-01-25 15:13:00,
2013-01-25 10:18:00,18.7,12.6,30.15,SSE,157,0.0,0.0,77,0.00,,,0.00,WUHU21623XXSP,2013-01-25 15:18:00,
2013-01-25 10:23:00,18.7,12.6,30.15,SSE,157,0.0,0.0,77,0.00,,,0.00,WUHU21623XXSP,2013-01-25 15:23:00,
2013-01-25 10:28:00,18.9,12.7,30.15,SSE,157,0.0,0.0,77,0.00,,,0.00,WUHU21623XXSP,2013-01-25 15:28:00,
2013-01-25 10:33:00,19.0,12.9,30.15,SSE,157,0.0,0.0,77,0.00,,,0.00,WUHU21623XXSP,2013-01-25 15:33:00,
2013-01-25 10:38:00,19.2,13.1,30.14,SSE,157,0.0,0.0,77,0.00,,,0.00,WUHU21623XXSP,2013-01-25 15:38:00,
2013-01-25 10:43:00,19.2,13.1,30.14,SSW,202,0.0,0.0,77,0.00,,,0.00,WUHU21623XXSP,2013-01-25 15:43:00,
2013-01-25 10:48:00,19.2,13.1,30.15,SSW,202,0.0,0.0,77,0.00,,,0.00,WUHU21623XXSP,2013-01-25 15:48:00,
2013-01-25 10:53:00,19.2,13.4,30.15,SSE,157,0.0,0.0,78,0.00,,,0.00,WUHU21623XXSP,2013-01-25 15:53:00,
2013-01-25 10:58:00,19.6,13.4,30.14,SSE,157,0.0,0.0,77,0.00,,,0.00,WUHU21623XXSP,2013-01-25 15:58:00,
2013-01-25 11:04:00,19.6,13.5,30.14,SSE,157,0.0,0.0,77,0.00,,,0.00,WUHU21623XXSP,2013-01-25 16:04:00,
2013-01-25 11:09:00,19.3,13.3,30.14,SW,225,0.0,0.0,77,0.00,,,0.00,WUHU21623XXSP,2013-01-25 16:09:00,
2013-01-25 11:14:00,19.2,13.2,30.13,South,180,0.0,0.0,77,0.00,,,0.00,WUHU21623XXSP,2013-01-25 16:14:00,
2013-01-25 11:19:00,19.3,13.3,30.14,WSW,247,0.0,0.0,77,0.00,,,0.00,WUHU21623XXSP,2013-01-25 16:19:00,
2013-01-25 11:24:00,19.3,13.3,30.13,SSE,157,0.0,0.0,77,0.00,,,0.00,WUHU21623XXSP,2013-01-25 16:24:00,
2013-01-25 11:29:00,19.0,13.0,30.12,SW,225,0.0,0.0,77,0.00,,,0.00,WUHU21623XXSP,2013-01-25 16:29:00,
2013-01-25 11:34:00,18.9,12.9,30.13,SW,225,0.0,0.0,77,0.00,,,0.00,WUHU21623XXSP,2013-01-25 16:34:00,
2013-01-25 11:39:00,18.6,12.6,30.13,SW,225,0.0,0.0,77,0.00,,,0.00,WUHU21623XXSP,2013-01-25 16:39:00,
2013-01-25 11:44:00,18.9,12.9,30.12,SW,225,0.0,0.0,77,0.00,,,0.00,WUHU21623XXSP,2013-01-25 16:44:00,
2013-01-25 11:49:00,18.8,12.5,30.11,SW,225,0.0,0.0,76,0.00,,,0.00,WUHU21623XXSP,2013-01-25 16:49:00,
2013-01-25 11:55:00,18.7,12.4,30.11,WSW,247,0.0,0.0,76,0.00,,,0.00,WUHU21623XXSP,2013-01-25 16:55:00,
2013-01-25 12:00:00,18.8,12.2,30.11,WSW,247,0.0,0.0,75,0.00,,,0.00,WUHU21623XXSP,2013-01-25 17:00:00,
2013-01-25 12:05:00,18.8,12.2,30.11,SW,225,0.0,0.0,75,0.00,,,0.00,WUHU21623XXSP,2013-01-25 17:05:00,
2013-01-25 12:10:00,18.6,12.0,30.11,SSW,202,0.0,0.0,75,0.00,,,0.00,WUHU21623XXSP,2013-01-25 17:10:00,
2013-01-25 12:16:00,18.5,11.9,30.10,SSW,202,0.0,0.0,75,0.00,,,0.00,WUHU21623XXSP,2013-01-25 17:16:00,
2013-01-25 12:21:00,18.2,11.7,30.10,NW,315,0.0,0.0,75,0.00,,,0.00,WUHU21623XXSP,2013-01-25 17:21:00,
2013-01-25 12:26:00,18.0,11.2,30.10,SSW,202,0.0,0.0,74,0.00,,,0.00,WUHU21623XXSP,2013-01-25 17:26:00,
2013-01-25 12:31:00,18.0,11.1,30.10,SW,225,0.0,0.0,74,0.00,,,0.00,WUHU21623XXSP,2013-01-25 17:31:00,
2013-01-25 12:36:00,18.0,11.1,30.10,SSW,202,0.0,0.0,74,0.00,,,0.00,WUHU21623XXSP,2013-01-25 17:36:00,
2013-01-25 12:41:00,17.8,10.9,30.09,SW,225,0.0,0.0,74,0.00,,,0.00,WUHU21623XXSP,2013-01-25 17:41:00,
2013-01-25 12:46:00,17.6,10.8,30.09,West,270,0.0,0.0,74,0.00,,,0.00,WUHU21623XXSP,2013-01-25 17:46:00,
2013-01-25 12:51:00,17.6,10.8,30.09,SSW,202,0.0,0.0,74,0.00,,,0.00,WUHU21623XXSP,2013-01-25 17:51:00,
2013-01-25 12:56:00,17.6,10.7,30.09,SW,225,0.0,0.0,74,0.00,,,0.00,WUHU21623XXSP,2013-01-25 17:56:00,
2013-01-25 13:01:00,17.4,10.6,30.08,South,180,0.0,0.0,74,0.00,,,0.00,WUHU21623XXSP,2013-01-25 18:01:00,
2013-01-25 13:06:00,17.3,10.4,30.08,SSW,202,0.0,0.0,74,0.00,,,0.00,WUHU21623XXSP,2013-01-25 18:06:00,
2013-01-25 13:11:00,17.3,10.5,30.08,SW,225,0.0,0.0,74,0.00,,,0.00,WUHU21623XXSP,2013-01-25 18:11:00,
2013-01-25 13:16:00,17.2,10.1,30.07,SW,225,0.0,0.0,73,0.00,,,0.00,WUHU21623XXSP,2013-01-25 18:16:00,
2013-01-25 13:21:00,17.3,10.2,30.07,SSW,202,0.0,0.0,73,0.00,,,0.00,WUHU21623XXSP,2013-01-25 18:21:00,
2013-01-25 13:26:00,17.4,10.3,30.07,WSW,247,0.0,0.0,73,0.00,,,0.00,WUHU21623XXSP,2013-01-25 18:26:00,
2013-01-25 13:31:00,17.3,10.2,30.06,West,270,0.0,0.0,73,0.00,,,0.00,WUHU21623XXSP,2013-01-25 18:31:00,
2013-01-25 13:36:00,17.2,10.1,30.06,SSW,202,0.0,0.0,73,0.00,,,0.00,WUHU21623XXSP,2013-01-25 18:36:00,
2013-01-25 13:41:00,17.2,10.1,30.05,West,270,0.0,0.0,73,0.00,,,0.00,WUHU21623XXSP,2013-01-25 18:41:00,
2013-01-25 13:46:00,17.1,10.0,30.05,West,270,0.0,0.0,73,0.00,,,0.00,WUHU21623XXSP,2013-01-25 18:46:00,
2013-01-25 13:51:00,17.4,10.3,30.05,South,180,0.0,0.0,73,0.00,,,0.00,WUHU21623XXSP,2013-01-25 18:51:00,
2013-01-25 13:56:00,17.4,10.3,30.05,West,270,0.0,0.0,73,0.00,,,0.00,WUHU21623XXSP,2013-01-25 18:56:00,
2013-01-25 14:01:00,17.4,10.3,30.05,SW,225,0.0,0.0,73,0.00,,,0.00,WUHU21623XXSP,2013-01-25 19:01:00,
2013-01-25 14:06:00,17.6,10.5,30.04,SW,225,0.0,0.0,73,0.00,,,0.00,WUHU21623XXSP,2013-01-25 19:06:00,
2013-01-25 14:11:00,18.0,10.6,30.04,SW,225,0.0,0.0,72,0.00,,,0.00,WUHU21623XXSP,2013-01-25 19:11:00,
2013-01-25 14:16:00,18.1,10.6,30.04,SSW,202,0.0,0.0,72,0.00,,,0.00,WUHU21623XXSP,2013-01-25 19:16:00,
2013-01-25 14:21:00,18.1,10.7,30.04,SW,225,0.0,0.0,72,0.00,,,0.00,WUHU21623XXSP,2013-01-25 19:21:00,
2013-01-25 14:26:00,18.2,10.7,30.04,SSW,202,0.0,0.0,72,0.00,,,0.00,WUHU21623XXSP,2013-01-25 19:26:00,
2013-01-25 14:31:00,18.3,10.8,30.04,West,270,0.0,0.0,72,0.00,,,0.00,WUHU21623XXSP,2013-01-25 19:31:00,
2013-01-25 14:36:00,18.4,10.9,30.03,West,270,0.0,0.0,72,0.00,,,0.00,WUHU21623XXSP,2013-01-25 19:36:00,
2013-01-25 14:41:00,18.5,11.0,30.03,SW,225,0.0,0.0,72,0.00,,,0.00,WUHU21623XXSP,2013-01-25 19:41:00,
2013-01-25 14:46:00,18.6,11.1,30.03,NW,315,0.0,0.0,72,0.00,,,0.00,WUHU21623XXSP,2013-01-25 19:46:00,
2013-01-25 14:51:00,18.7,11.2,30.03,West,270,0.0,0.0,72,0.00,,,0.00,WUHU21623XXSP,2013-01-25 19:51:00,
2013-01-25 14:56:00,18.8,11.3,30.03,West,270,0.0,0.0,72,0.00,,,0.00,WUHU21623XXSP,2013-01-25 19:56:00,
2013-01-25 15:01:00,19.0,11.5,30.03,WNW,292,0.0,0.0,72,0.00,,,0.00,WUHU21623XXSP,2013-01-25 20:01:00,
2013-01-25 15:06:00,19.1,11.6,30.02,SW,225,0.0,0.0,72,0.00,,,0.00,WUHU21623XXSP,2013-01-25 20:06:00,
2013-01-25 15:11:00,19.5,12.0,30.03,WNW,292,0.0,0.0,72,0.00,,,0.00,WUHU21623XXSP,2013-01-25 20:11:00,
2013-01-25 15:16:00,19.7,12.2,30.03,WNW,292,0.0,0.0,72,0.00,,,0.00,WUHU21623XXSP,2013-01-25 20:16:00,
2013-01-25 15:21:00,19.7,12.2,30.03,SSW,202,0.0,0.0,72,0.00,,,0.00,WUHU21623XXSP,2013-01-25 20:21:00,
2013-01-25 15:26:00,19.9,12.4,30.03,West,270,0.0,0.0,72,0.00,,,0.00,WUHU21623XXSP,2013-01-25 20:26:00,
2013-01-25 15:31:00,20.1,12.6,30.04,West,270,0.0,0.0,72,0.00,,,0.00,WUHU21623XXSP,2013-01-25 20:31:00,
2013-01-25 15:36:00,20.1,12.6,30.04,WNW,292,2.2,2.2,72,0.00,,,0.00,WUHU21623XXSP,2013-01-25 20:36:00,
2013-01-25 15:41:00,20.6,13.0,30.04,SW,225,0.0,2.2,72,0.00,,,0.00,WUHU21623XXSP,2013-01-25 20:41:00,
2013-01-25 15:46:00,20.4,12.9,30.03,West,270,0.0,0.0,72,0.00,,,0.00,WUHU21623XXSP,2013-01-25 20:46:00,
2013-01-25 15:51:00,20.7,13.1,30.03,WSW,247,5.4,5.4,72,0.00,,,0.00,WUHU21623XXSP,2013-01-25 20:51:00,
2013-01-25 15:56:00,20.9,13.4,30.04,West,270,0.0,5.4,72,0.00,,,0.00,WUHU21623XXSP,2013-01-25 20:56:00,
2013-01-25 16:01:00,21.2,13.6,30.04,WNW,292,0.0,5.4,72,0.00,,,0.00,WUHU21623XXSP,2013-01-25 21:01:00,
2013-01-25 16:06:00,21.5,13.9,30.04,WSW,246,3.6,3.8,72,0.00,,,0.00,WUHU21623XXSP,2013-01-25 21:06:00,
2013-01-25 16:11:00,21.5,13.9,30.04,WNW,292,0.7,3.8,72,0.00,,,0.00,WUHU21623XXSP,2013-01-25 21:11:00,
2013-01-25 16:16:00,21.8,14.2,30.05,SW,225,2.5,2.5,72,0.00,,,0.00,WUHU21623XXSP,2013-01-25 21:16:00,
2013-01-25 16:21:00,22.1,14.5,30.04,SW,225,0.0,2.5,72,0.00,,,0.00,WUHU21623XXSP,2013-01-25 21:21:00,
2013-01-25 16:26:00,22.3,14.7,30.04,West,270,0.0,2.5,72,0.00,,,0.00,WUHU21623XXSP,2013-01-25 21:26:00,
2013-01-25 16:31:00,22.4,14.8,30.04,West,270,3.6,3.6,72,0.00,,,0.00,WUHU21623XXSP,2013-01-25 21:31:00,
2013-01-25 16:36:00,22.7,15.4,30.05,WSW,247,3.1,3.6,73,0.00,,,0.00,WUHU21623XXSP,2013-01-25 21:36:00,
2013-01-25 16:41:00,23.0,15.7,30.04,West,270,1.6,3.6,73,0.00,,,0.00,WUHU21623XXSP,2013-01-25 21:41:00,
2013-01-25 16:46:00,23.3,15.9,30.04,SW,225,0.0,1.6,73,0.00,,,0.00,WUHU21623XXSP,2013-01-25 21:46:00,
2013-01-25 16:51:00,23.6,16.2,30.03,WNW,292,2.7,2.7,73,0.00,,,0.00,WUHU21623XXSP,2013-01-25 21:51:00,
2013-01-25 16:56:00,23.9,16.5,30.03,WSW,247,0.0,2.7,73,0.00,,,0.00,WUHU21623XXSP,2013-01-25 21:56:00,
2013-01-25 17:01:00,24.1,16.6,30.03,SSW,202,0.0,2.7,73,0.00,,,0.00,WUHU21623XXSP,2013-01-25 22:01:00,
2013-01-25 17:06:00,23.9,16.5,30.04,WNW,292,0.0,0.0,73,0.00,,,0.00,WUHU21623XXSP,2013-01-25 22:06:00,
2013-01-25 17:11:00,24.1,16.6,30.04,West,270,1.1,1.1,73,0.00,,,0.00,WUHU21623XXSP,2013-01-25 22:11:00,
2013-01-25 17:16:00,24.1,16.6,30.04,WNW,292,0.0,1.1,73,0.00,,,0.00,WUHU21623XXSP,2013-01-25 22:16:00,
2013-01-25 17:21:00,23.9,16.5,30.03,SW,225,2.9,2.9,73,0.00,,,0.00,WUHU21623XXSP,2013-01-25 22:21:00,
2013-01-25 17:26:00,23.9,16.5,30.03,SW,225,1.6,2.9,73,0.00,,,0.00,WUHU21623XXSP,2013-01-25 22:26:00,
2013-01-25 17:31:00,23.7,16.3,30.03,WSW,247,1.6,2.9,73,0.00,,,0.00,WUHU21623XXSP,2013-01-25 22:31:00,
2013-01-25 17:36:00,23.7,16.6,30.04,West,270,0.0,1.6,74,0.00,,,0.00,WUHU21623XXSP,2013-01-25 22:36:00,
2013-01-25 17:41:00,23.7,16.6,30.04,West,270,0.7,1.6,74,0.00,,,0.00,WUHU21623XXSP,2013-01-25 22:41:00,
2013-01-25 17:46:00,23.7,16.6,30.04,West,270,0.0,0.7,74,0.00,,,0.00,WUHU21623XXSP,2013-01-25 22:46:00,
2013-01-25 17:51:00,23.5,16.4,30.04,West,270,0.0,0.7,74,0.00,,,0.00,WUHU21623XXSP,2013-01-25 22:51:00,
2013-01-25 17:56:00,23.5,16.4,30.04,WSW,247,0.0,0.0,74,0.00,,,0.00,WUHU21623XXSP,2013-01-25 22:56:00,
2013-01-25 18:01:00,23.5,16.4,30.03,SW,225,0.0,0.0,74,0.00,,,0.00,WUHU21623XXSP,2013-01-25 23:01:00,
2013-01-25 18:06:00,23.5,16.4,30.04,WSW,247,0.0,0.0,74,0.00,,,0.00,WUHU21623XXSP,2013-01-25 23:06:00,
2013-01-25 18:11:00,23.5,16.4,30.04,SW,225,0.0,0.0,74,0.00,,,0.00,WUHU21623XXSP,2013-01-25 23:11:00,
2013-01-25 18:16:00,23.5,16.4,30.04,SW,225,0.0,0.0,74,0.00,,,0.00,WUHU21623XXSP,2013-01-25 23:16:00,
2013-01-25 18:21:00,23.5,16.4,30.05,WNW,292,2.2,2.2,74,0.00,,,0.00,WUHU21623XXSP,2013-01-25 23:21:00,
2013-01-25 18:26:00,23.4,16.3,30.05,West,270,0.0,2.2,74,0.00,,,0.00,WUHU21623XXSP,2013-01-25 23:26:00,
2013-01-25 18:31:00,23.5,16.4,30.05,West,270,0.0,0.0,74,0.00,,,0.00,WUHU21623XXSP,2013-01-25 23:31:00,
2013-01-25 18:36:00,23.5,16.4,30.05,SSW,202,0.0,0.0,74,0.00,,,0.00,WUHU21623XXSP,2013-01-25 23:36:00,
2013-01-25 18:41:00,23.5,16.8,30.05,SSW,202,0.0,0.0,75,0.00,,,0.00,WUHU21623XXSP,2013-01-25 23:41:00,
2013-01-25 18:46:00,23.4,16.6,30.05,SW,225,0.0,0.0,75,0.00,,,0.00,WUHU21623XXSP,2013-01-25 23:46:00,
2013-01-25 18:51:00,23.5,16.8,30.05,SSW,202,0.0,0.0,75,0.00,,,0.00,WUHU21623XXSP,2013-01-25 23:51:00,
2013-01-25 18:56:00,23.5,16.8,30.06,SW,225,0.0,0.0,75,0.00,,,0.00,WUHU21623XXSP,2013-01-25 23:56:00,
2013-01-25 19:01:00,23.5,16.8,30.07,SW,225,0.0,0.0,75,0.00,,,0.00,WUHU21623XXSP,2013-01-26 00:01:00,
2013-01-25 19:06:00,23.5,16.8,30.06,West,270,0.0,0.0,75,0.00,,,0.00,WUHU21623XXSP,2013-01-26 00:06:00,
2013-01-25 19:11:00,23.5,16.8,30.06,West,270,0.0,0.0,75,0.00,,,0.00,WUHU21623XXSP,2013-01-26 00:11:00,
2013-01-25 19:16:00,23.5,16.8,30.06,SW,225,2.5,2.5,75,0.00,,,0.00,WUHU21623XXSP,2013-01-26 00:16:00,
2013-01-25 19:22:00,23.5,16.8,30.06,SW,225,0.0,2.5,75,0.00,,,0.00,WUHU21623XXSP,2013-01-26 00:22:00,
2013-01-25 19:27:00,23.5,16.8,30.06,SW,225,0.0,0.0,75,0.00,,,0.00,WUHU21623XXSP,2013-01-26 00:27:00,
2013-01-25 19:32:00,23.5,16.8,30.06,SW,225,0.0,0.0,75,0.00,,,0.00,WUHU21623XXSP,2013-01-26 00:32:00,
2013-01-25 19:37:00,23.7,17.2,30.06,SSW,202,0.0,0.0,76,0.00,,,0.00,WUHU21623XXSP,2013-01-26 00:37:00,
2013-01-25 19:42:00,23.7,17.2,30.06,SW,225,0.7,0.7,76,0.00,,,0.00,WUHU21623XXSP,2013-01-26 00:42:00,
2013-01-25 19:47:00,23.7,17.2,30.06,SW,225,0.0,0.7,76,0.00,,,0.00,WUHU21623XXSP,2013-01-26 00:47:00,
2013-01-25 19:52:00,23.9,17.4,30.07,SW,225,0.0,0.7,76,0.00,,,0.00,WUHU21623XXSP,2013-01-26 00:52:00,
2013-01-25 19:57:00,23.9,17.4,30.06,SSW,202,0.0,0.0,76,0.00,,,0.00,WUHU21623XXSP,2013-01-26 00:57:00,
2013-01-25 20:02:00,23.9,17.4,30.07,SSW,202,0.0,0.0,76,0.00,,,0.00,WUHU21623XXSP,2013-01-26 01:02:00,
2013-01-25 20:07:00,24.1,17.6,30.07,SW,225,0.0,0.0,76,0.00,,,0.00,WUHU21623XXSP,2013-01-26 01:07:00,
2013-01-25 20:12:00,23.9,17.4,30.06,SSW,202,0.0,0.0,76,0.00,,,0.00,WUHU21623XXSP,2013-01-26 01:12:00,
2013-01-25 20:17:00,24.1,17.6,30.07,SSW,202,0.0,0.0,76,0.00,,,0.00,WUHU21623XXSP,2013-01-26 01:17:00,
2013-01-25 20:22:00,24.1,17.6,30.07,SSW,202,0.0,0.0,76,0.00,,,0.00,WUHU21623XXSP,2013-01-26 01:22:00,
2013-01-25 20:27:00,24.1,17.6,30.07,SSW,202,0.0,0.0,76,0.00,,,0.00,WUHU21623XXSP,2013-01-26 01:27:00,
2013-01-25 20:32:00,24.1,17.6,30.07,SSW,202,0.0,0.0,76,0.00,,,0.00,WUHU21623XXSP,2013-01-26 01:32:00,
2013-01-25 20:37:00,24.1,17.6,30.07,SSW,202,0.0,0.0,76,0.00,,,0.00,WUHU21623XXSP,2013-01-26 01:37:00,
2013-01-25 20:42:00,24.1,17.6,30.07,SSW,202,0.0,0.0,76,0.00,,,0.00,WUHU21623XXSP,2013-01-26 01:42:00,
2013-01-25 20:47:00,24.1,17.6,30.07,SSW,202,0.0,0.0,76,0.00,,,0.00,WUHU21623XXSP,2013-01-26 01:47:00,
2013-01-25 20:52:00,24.1,17.6,30.06,SSW,202,0.0,0.0,76,0.00,,,0.00,WUHU21623XXSP,2013-01-26 01:52:00,
2013-01-25 20:57:00,24.1,17.6,30.06,SSW,202,0.0,0.0,76,0.00,,,0.00,WUHU21623XXSP,2013-01-26 01:57:00,
2013-01-25 21:02:00,24.1,17.6,30.06,SSW,202,0.0,0.0,76,0.00,,,0.00,WUHU21623XXSP,2013-01-26 02:02:00,
2013-01-25 21:07:00,23.9,17.4,30.06,SSW,202,0.0,0.0,76,0.00,,,0.00,WUHU21623XXSP,2013-01-26 02:07:00,
2013-01-25 21:12:00,23.9,17.4,30.06,SSW,202,0.0,0.0,76,0.00,,,0.00,WUHU21623XXSP,2013-01-26 02:12:00,
2013-01-25 21:17:00,23.9,17.4,30.06,SSW,202,0.0,0.0,76,0.00,,,0.00,WUHU21623XXSP,2013-01-26 02:17:00,
2013-01-25 21:22:00,23.9,17.4,30.05,SSW,202,0.0,0.0,76,0.00,,,0.00,WUHU21623XXSP,2013-01-26 02:22:00,
2013-01-25 21:27:00,23.7,17.2,30.06,SSW,202,0.0,0.0,76,0.00,,,0.00,WUHU21623XXSP,2013-01-26 02:27:00,
2013-01-25 21:32:00,23.7,17.5,30.05,SSW,202,0.0,0.0,77,0.00,,,0.00,WUHU21623XXSP,2013-01-26 02:32:00,
2013-01-25 21:37:00,23.7,17.5,30.05,SSW,202,0.0,0.0,77,0.00,,,0.00,WUHU21623XXSP,2013-01-26 02:37:00,
2013-01-25 21:42:00,23.7,17.5,30.06,SSW,202,0.0,0.0,77,0.00,,,0.00,WUHU21623XXSP,2013-01-26 02:42:00,
2013-01-25 21:47:00,23.5,17.4,30.06,SSW,202,0.0,0.0,77,0.00,,,0.00,WUHU21623XXSP,2013-01-26 02:47:00,
2013-01-25 21:52:00,23.5,17.4,30.05,SSW,202,0.0,0.0,77,0.00,,,0.00,WUHU21623XXSP,2013-01-26 02:52:00,
2013-01-25 21:57:00,23.5,17.4,30.06,SSW,202,0.0,0.0,77,0.00,,,0.00,WUHU21623XXSP,2013-01-26 02:57:00,
2013-01-25 22:02:00,23.5,17.4,30.05,SSW,202,0.0,0.0,77,0.00,,,0.00,WUHU21623XXSP,2013-01-26 03:02:00,
2013-01-25 22:07:00,23.5,17.4,30.06,SSW,202,0.0,0.0,77,0.00,,,0.00,WUHU21623XXSP,2013-01-26 03:07:00,
2013-01-25 22:12:00,23.5,17.4,30.05,SSW,202,0.9,0.9,77,0.00,,,0.00,WUHU21623XXSP,2013-01-26 03:12:00,
2013-01-25 22:17:00,23.5,17.4,30.05,SSW,202,0.0,0.9,77,0.00,,,0.00,WUHU21623XXSP,2013-01-26 03:17:00,
2013-01-25 22:22:00,23.7,17.5,30.06,SSW,202,0.0,0.0,77,0.00,,,0.00,WUHU21623XXSP,2013-01-26 03:22:00,
2013-01-25 22:27:00,23.7,17.9,30.05,SSW,202,0.0,0.0,78,0.00,,,0.00,WUHU21623XXSP,2013-01-26 03:27:00,
2013-01-25 22:32:00,23.7,17.9,30.05,SSW,202,0.0,0.0,78,0.00,,,0.00,WUHU21623XXSP,2013-01-26 03:32:00,
2013-01-25 22:37:00,23.9,18.0,30.06,SSW,202,0.0,0.0,78,0.00,,,0.00,WUHU21623XXSP,2013-01-26 03:37:00,
2013-01-25 22:42:00,23.9,18.0,30.06,SSW,202,0.0,0.0,78,0.00,,,0.00,WUHU21623XXSP,2013-01-26 03:42:00,
2013-01-25 22:47:00,24.1,18.2,30.06,SSW,202,0.0,0.0,78,0.00,,,0.00,WUHU21623XXSP,2013-01-26 03:47:00,
2013-01-25 22:52:00,24.1,18.2,30.05,SSW,202,0.0,0.0,78,0.00,,,0.00,WUHU21623XXSP,2013-01-26 03:52:00,
2013-01-25 22:57:00,24.1,18.2,30.05,SSW,202,0.0,0.0,78,0.00,,,0.00,WUHU21623XXSP,2013-01-26 03:57:00,
2013-01-25 23:02:00,24.1,18.2,30.05,SSW,202,0.0,0.0,78,0.00,,,0.00,WUHU21623XXSP,2013-01-26 04:02:00,
2013-01-25 23:07:00,24.3,18.4,30.06,SSW,202,0.0,0.0,78,0.00,,,0.00,WUHU21623XXSP,2013-01-26 04:07:00,
2013-01-25 23:12:00,24.4,18.6,30.06,SW,225,0.9,0.9,78,0.00,,,0.00,WUHU21623XXSP,2013-01-26 04:12:00,
2013-01-25 23:17:00,24.4,18.6,30.05,West,270,0.0,0.9,78,0.00,,,0.00,WUHU21623XXSP,2013-01-26 04:17:00,
2013-01-25 23:22:00,24.6,18.8,30.06,WSW,247,0.9,0.9,78,0.00,,,0.00,WUHU21623XXSP,2013-01-26 04:22:00,
2013-01-25 23:27:00,24.6,18.8,30.06,WSW,247,0.9,0.9,78,0.00,,,0.00,WUHU21623XXSP,2013-01-26 04:27:00,
2013-01-25 23:32:00,24.6,18.8,30.07,WSW,247,0.0,0.9,78,0.00,,,0.00,WUHU21623XXSP,2013-01-26 04:32:00,
2013-01-25 23:37:00,24.6,18.8,30.07,WSW,247,0.0,0.0,78,0.00,,,0.00,WUHU21623XXSP,2013-01-26 04:37:00,
2013-01-25 23:42:00,24.6,18.8,30.07,WSW,247,0.0,0.0,78,0.00,,,0.00,WUHU21623XXSP,2013-01-26 04:42:00,
2013-01-25 23:47:00,24.6,18.8,30.07,WSW,247,0.0,0.0,78,0.00,,,0.00,WUHU21623XXSP,2013-01-26 04:47:00,
2013-01-25 23:52:00,24.6,18.8,30.08,WSW,247,0.0,0.0,78,0.00,,,0.00,WUHU21623XXSP,2013-01-26 04:52:00,
2013-01-25 23:57:00,24.6,18.8,30.08,West,270,2.0,2.0,78,0.00,,,0.00,WUHU21623XXSP,2013-01-26 04:57:00,